Погода в Орте

Португалия     38°32′10″N   28°37′47″W
темп.,
°C
ветер,
м/с
пор.,
м/с
влажн.,
%
обл.,
%
осадки,
мм/ч
давл.,
гПа
погр.,
м
15 августа, пн
пн1500:00+25ссз45850 0.4 1021503
03:00+24с44867 0.1 1021439
06:00+24с238328 0.2 1020311
09:00+24с458223 0.1 1021574
12:00+24с56750 0.1 1022674
15:00+24ссв55761 0.0 1022750
18:00+24св67781 0.0 1022698
21:00+24всв887828 0.1 1023761
16 августа, вт
вт1600:00+23св98792 0.2 1024716
03:00+23св877747 0.1 1024822
06:00+23св997221 0.1 1024817
09:00+23всв88681 0.0 1025920
12:00+23всв77644 0.0 10271136
15:00+23всв65611 0.0 10271021
18:00+23всв887357 0.1 1027986
21:00+23всв557296 0.1 1028814
17 августа, ср
ср1700:00+23всв766720 0.3 1028995
03:00+22всв766826 0.1 10271011
06:00+22всв766456 0.1 1027959
09:00+22всв666328 0.0 1028969
12:00+22всв446424 0.1 10291010
15:00+23всв336638 0.3 1028917
18:00+23вюв116279 0.3 1028938
21:00+23св666736 0.1 1028894
18 августа, чт
чт1800:00+23всв44679 0.1 1029948
03:00+22в336513 0.1 1028957
06:00+22всв226219 0.1 1027884
09:00+22всв236122 0.0 10271045
12:00+22всв44614 0.0 10281071
15:00+23св55638 0.0 1027921
18:00+23св66642 0.0 1026964
21:00+23св666748 0.0 1027937
19 августа, пт
пт1900:00+23всв7771100 0.0 1027850
03:00+23всв766910 0.0 1026955
06:00+22всв776937 0.1 10261105
09:00+23всв776680 0.1 10271257
12:00+23всв666642 0.1 10271103
15:00+23св776713 0.0 1026929
18:00+23св776917 0.0 1026968
21:00+23всв88692 0.0 10261020